This demonstration page uses our WeatherBlox Daily Observations layout. Learn more.

Left ArrowRight Arrow

Hourly Observations for December 1, 2022

Temp ( °F °C ) Dew Point ( °F °C ) Humidity (%) Winds ( mph kmh ) Pressure ( in mb ) Visibility ( mi km ) Precip ( " mm )
12:55 am 00:55 Clear 18 -7.9 9 -12.6 69 69 SE 6 9 30.42 1030 10 16 0.00 0.00
1:55 am 01:55 Clear 18 -7.9 9 -13 67 67 SE 5 7 30.40 1030 10 16 0.00 0.00
2:55 am 02:55 Clear 18 -7.7 9 -13 66 66 SE 6 9 30.38 1029 10 16 0.00 0.00
3:55 am 03:55 Clear 18 -7.8 9 -12.9 67 67 SE 8 13 30.35 1028 10 16 0.00 0.00
4:55 am 04:55 Clear 20 -6.8 10 -12.1 66 66 SE 8 13 30.32 1027 10 16 0.00 0.00
5:55 am 05:55 Clear 25 -4.1 12 -10.9 59 59 SSE 16 26 30.29 1026 10 16 0.00 0.00
6:55 am 06:55 Clear 24 -4.3 13 -10.5 62 62 SE 14 22 30.27 1025 10 16 0.00 0.00
7:55 am 07:55 Sunny 27 -2.6 15 -9.5 59 59 SE 20 31 30.24 1024 10 16 0.00 0.00
8:55 am 08:55 Sunny 32 -0.1 15 -9.3 50 50 SE 26 43 30.19 1023 10 16 0.00 0.00
9:55 am 09:55 Sunny 35 1.6 16 -9.1 45 45 SE 20 31 30.20 1023 10 16 0.00 0.00
10:55 am 10:55 Sunny 38 3.3 16 -9 40 40 S 15 24 30.19 1022 10 16 0.00 0.00
11:55 am 11:55 Sunny 42 5.7 17 -8.6 35 35 SSE 17 28 30.13 1020 10 16 0.00 0.00
12:55 pm 12:55 Sunny 46 7.7 15 -9.2 29 29 S 16 26 30.06 1018 10 16 0.00 0.00
1:55 pm 13:55 Sunny 49 9.4 16 -8.7 27 27 S 20 31 30.02 1017 10 16 0.00 0.00
2:55 pm 14:55 Sunny 50 9.9 17 -8.2 27 27 S 14 22 29.99 1016 10 16 0.00 0.00
3:55 pm 15:55 Sunny 50 9.9 17 -8.2 27 27 S 13 20 29.99 1016 10 16 0.00 0.00
4:55 pm 16:55 Sunny 47 8.5 18 -7.7 31 31 S 10 17 29.98 1015 10 16 0.00 0.00
5:55 pm 17:55 Clear 45 7.3 19 -7.2 35 35 S 12 19 29.97 1015 10 16 0.00 0.00
7:55 pm 19:55 Clear 42 5.8 23 -5.2 45 45 S 12 19 29.97 1015 10 16 0.00 0.00
8:55 pm 20:55 Clear 42 5.5 22 -5.5 45 45 SSE 12 19 29.95 1014 10 16 0.00 0.00
9:55 pm 21:55 Clear 40 4.4 20 -6.5 45 45 SSE 14 22 29.93 1013 10 16 0.00 0.00
10:55 pm 22:55 Clear 36 2.1 19 -7.2 50 50 SE 10 17 29.90 1012 10 16 0.00 0.00
11:55 pm 23:55 Clear 37 2.5 19 -7.1 49 49 SSE 13 20 29.86 1011 10 16 0.00 0.00

Powered by AerisWeather